Theta_e
348 345 342 341 340 340 340 340 340 341 344 345 344 343 339 335 333 333 333 334 334 334 336 337 337 337 337 337 337 336 336 337 339 340 340 339 336 335 340 342 343 333 326
349 341 338 340 341 340 340 341 342 344 345 342 343 341 338 333 332 333 334 335 336 336 337 338 338 336 336 334 335 338 341 341 341 341 343 341 338 334 338 342 341 327 326
350 342 340 338 341 341 342 342 343 344 341 335 336 335 336 334 331 331 331 331 334 337 338 337 334 335 335 336 337 339 340 341 340 343 345 344 339 332 329 332 332 325 329
351 346 343 342 342 342 342 343 342 343 339 339 342 341 339 340 337 335 334 335 337 338 336 332 335 338 337 337 338 339 340 340 341 346 346 346 343 332 327 327 325 325 322
352 345 345 345 344 343 343 341 341 340 340 338 339 339 341 340 339 339 338 338 339 337 335 337 339 339 338 338 338 339 339 341 342 343 346 345 345 335 327 325 331 331 332
354 347 347 346 345 344 342 341 339 339 340 339 339 336 339 339 338 338 337 337 337 337 338 337 337 338 337 336 336 338 339 341 342 345 346 342 344 337 328 323 340 331 327
353 347 345 343 342 343 343 341 339 338 341 341 338 338 339 338 339 336 335 336 336 334 334 335 336 336 337 338 337 337 339 339 343 345 347 346 341 334 327 326 323 328 328
354 351 345 341 341 343 343 342 340 336 339 340 339 337 336 337 337 335 333 333 332 333 335 336 337 337 337 337 338 340 343 340 340 346 346 347 340 332 328 328 323 324 329
356 353 346 343 343 342 341 342 342 340 339 339 338 336 337 337 337 335 334 335 335 336 336 336 336 336 336 336 335 335 338 341 342 347 347 346 336 329 332 324 327 323 327
353 353 352 346 345 345 343 341 340 340 341 339 337 337 337 338 340 339 340 344 344 342 337 335 335 333 334 334 342 343 338 341 347 348 348 347 342 332 330 331 326 325 322
353 354 353 352 350 350 346 345 342 339 339 338 337 338 338 348 350 349 341 336 343 340 337 334 341 339 336 339 342 344 341 347 347 348 348 347 337 332 326 331 326 329 326
352 353 354 353 352 350 354 347 343 342 340 339 342 347 345 350 348 348 344 345 347 346 345 346 346 346 347 345 345 339 346 347 344 349 346 346 342 334 327 331 332 324 330
352 352 354 354 349 352 353 347 349 348 349 350 346 346 347 349 344 351 348 348 347 345 347 346 344 345 350 347 340 345 346 347 344 349 345 344 344 339 334 330 333 327 325
350 352 352 350 351 352 351 350 350 353 350 348 348 350 345 345 348 346 347 345 347 347 346 344 344 345 348 341 347 346 340 345 344 346 345 343 345 342 337 328 335 332 327
350 351 352 353 348 351 352 348 352 351 349 349 348 350 352 346 345 344 343 344 344 347 347 349 343 344 345 345 346 347 344 341 343 345 344 345 343 344 339 337 328 334 325
350 350 351 351 348 348 346 350 348 349 350 348 349 348 346 347 348 346 345 345 345 347 344 345 345 341 341 343 345 345 345 345 341 344 344 344 345 343 341 339 333 329 328
349 349 349 348 351 347 347 346 345 344 351 346 345 343 345 345 344 348 344 342 341 343 345 342 345 345 344 343 345 345 345 345 342 342 342 346 346 345 343 341 336 331 323
348 348 348 348 350 350 349 346 346 344 350 353 349 349 348 350 349 347 346 344 343 342 342 340 345 346 346 344 344 344 343 345 343 345 344 341 344 346 344 345 341 337 335
350 350 349 350 351 355 354 348 350 350 347 349 350 348 349 349 346 345 345 345 347 345 345 345 346 347 345 343 340 346 344 343 345 345 345 344 343 345 347 346 345 343 341
353 352 352 352 352 354 354 352 351 351 350 350 349 351 351 350 347 347 346 345 345 344 342 340 340 340 341 343 343 340 344 344 344 345 344 343 345 345 343 345 346 346 343
353 350 353 350 355 353 353 349 348 349 347 345 345 346 349 347 343 343 343 342 340 342 344 341 339 339 341 341 342 339 338 335 341 342 344 345 343 344 344 344 347 346 344
354 354 353 353 349 353 350 349 345 344 349 346 347 344 345 346 346 344 339 339 342 339 339 342 337 334 336 336 340 342 342 339 338 340 342 342 343 344 343 343 343 345 346
351 352 352 353 351 351 351 347 347 347 346 343 347 345 346 345 341 340 341 340 337 336 337 341 340 336 338 338 338 342 340 338 339 340 346 345 344 343 343 344 344 343 344
351 353 353 352 354 353 350 345 342 336 332 338 339 338 337 335 329 330 332 338 340 339 336 339 338 337 336 337 337 338 338 339 342 340 335 342 342 346 346 344 344 345 344
351 353 355 356 352 349 325 323 330 332 336 334 335 336 331 336 336 336 339 340 334 336 336 336 337 337 336 336 337 336 337 336 338 342 342 338 337 340 343 340 339 343 346
349 351 355 356 339 323 321 331 335 336 333 327 334 336 338 336 334 336 337 336 328 332 334 334 333 334 336 333 334 335 336 337 336 336 338 338 339 337 341 341 342 340 337
Wind_Speed
8 14 18 20 21 23 24 24 23 25 23 23 22 22 24 25 24 20 17 16 16 15 13 10 10 10 9 9 8 7 6 5 5 6 7 9 9 9 10 9 12 4 7
11 15 18 20 21 21 21 22 22 23 22 22 22 23 23 21 19 20 18 15 15 13 10 9 8 8 8 8 8 8 8 7 6 7 5 8 9 8 8 8 8 4 7
12 16 18 19 20 20 20 20 21 21 22 23 22 21 19 17 16 14 13 12 11 9 8 7 7 7 7 8 9 9 8 7 6 8 5 4 9 9 7 6 2 4 8
17 15 17 19 18 18 18 18 19 20 20 20 19 19 18 16 15 14 12 11 10 8 7 7 8 8 9 9 9 9 10 9 6 2 3 5 7 10 8 6 6 7 8
18 15 17 18 18 18 17 17 18 18 18 16 15 15 14 14 15 12 11 9 7 6 5 5 6 7 8 8 10 10 12 10 7 6 4 2 3 9 8 7 9 9 10
17 15 17 16 16 15 15 15 16 16 14 13 12 11 11 11 11 10 9 7 6 5 4 5 5 6 7 8 9 10 11 10 9 4 1 5 3 4 7 9 7 6 9
15 18 18 18 15 14 14 13 14 13 12 11 11 10 8 8 8 7 5 5 4 4 5 5 6 7 9 10 9 10 9 8 5 3 3 5 2 2 6 8 7 7 9
19 13 17 17 15 14 14 13 13 13 11 10 9 7 7 7 5 4 3 3 4 4 5 6 8 9 10 11 11 11 10 9 5 0 2 1 2 1 4 7 6 7 8
17 13 15 14 12 12 12 12 12 12 10 8 6 5 5 4 2 3 4 5 5 5 7 9 12 12 11 11 10 11 10 8 6 2 1 4 4 1 2 6 5 7 8
15 13 9 11 12 11 11 10 10 10 9 8 5 5 4 3 3 2 1 3 6 10 11 12 12 13 11 10 9 11 10 6 8 2 4 1 1 3 0 3 5 6 7
13 14 13 10 8 10 8 11 9 9 9 8 6 4 2 4 9 3 6 7 6 10 10 10 10 10 8 7 8 9 9 7 10 6 3 8 2 1 2 5 5 7 7
15 10 11 10 5 9 8 4 5 4 6 5 3 3 1 3 6 4 6 8 5 7 7 7 7 10 8 8 13 8 10 6 12 10 10 5 2 2 4 7 7 7 8
12 15 12 15 10 10 10 7 2 0 1 4 2 5 6 6 5 5 8 6 4 9 7 10 8 8 5 6 8 7 8 7 9 10 13 9 6 7 7 8 9 8 10
12 11 10 4 10 6 4 5 6 8 7 6 7 6 7 8 8 4 6 7 4 7 12 15 10 9 11 10 8 9 11 6 6 15 12 11 11 10 11 9 12 10 11
13 10 11 10 11 11 9 10 8 8 6 7 7 8 3 10 12 9 9 9 8 8 9 14 12 10 12 13 9 13 13 9 10 11 14 14 14 12 13 14 13 13 12
12 12 11 11 12 14 12 12 11 10 9 13 10 12 14 15 14 15 12 10 8 10 14 16 16 18 16 14 13 12 15 14 12 12 13 17 16 15 12 16 15 15 14
12 13 12 8 9 8 10 13 17 11 7 9 11 13 13 13 17 17 15 15 14 16 19 19 15 17 18 13 14 14 17 21 16 16 18 17 17 15 13 13 17 16 16
13 14 13 10 11 11 8 11 12 12 12 9 12 11 11 12 17 19 18 19 18 18 20 21 17 17 19 17 20 20 21 20 17 19 19 21 19 20 19 16 15 17 17
15 11 12 11 12 12 8 10 10 8 11 10 12 14 13 18 18 19 19 19 18 18 18 17 17 20 21 23 23 18 21 21 19 19 22 21 22 23 23 21 21 20 21
12 11 10 12 7 7 8 6 10 11 12 12 12 14 16 18 19 20 17 18 18 19 20 20 20 21 25 25 22 22 24 22 25 24 26 26 25 24 25 26 24 24 24
16 12 12 9 12 10 10 7 7 8 8 8 9 12 14 15 16 13 14 13 14 16 18 18 22 24 22 22 23 25 25 24 29 28 28 23 27 27 28 26 28 30 28
16 12 11 9 8 7 4 4 5 6 7 10 10 11 11 8 9 14 13 17 14 18 19 18 23 25 22 20 20 21 22 22 21 21 23 27 29 27 29 29 31 32 29
17 15 14 11 6 6 4 5 5 2 7 6 2 2 3 10 14 15 14 14 16 16 13 16 19 18 20 17 16 17 12 10 13 13 14 26 31 31 32 29 31 32 34
20 18 16 15 11 5 7 4 8 9 7 8 10 10 15 19 19 16 14 10 12 15 15 15 17 16 17 18 16 15 18 22 22 20 25 16 19 27 29 33 32 30 34
21 21 18 15 14 13 6 8 7 5 7 3 7 13 16 8 12 14 9 12 15 13 14 17 16 15 15 17 17 18 19 19 20 23 28 31 26 25 24 26 33 32 32
24 21 18 21 14 8 4 1 1 1 4 8 9 9 5 7 6 10 12 18 16 11 12 16 15 15 15 16 16 16 17 19 22 22 26 32 33 35 25 28 33 29 41
Wind_Direction
104 103 110 109 111 111 112 116 118 118 117 112 115 115 116 115 117 118 116 109 107 109 107 87 73 76 65 59 56 49 39 36 32 60 62 70 69 79 88 85 84 38 63
116 113 110 110 114 115 114 116 117 116 113 113 116 116 118 117 119 110 109 106 103 96 92 82 74 59 55 49 38 32 34 47 51 49 69 77 78 83 88 89 124 33 80
128 120 115 113 115 114 114 115 116 119 118 116 117 114 113 118 121 122 112 109 109 92 79 77 69 61 49 35 27 24 21 36 47 44 56 87 69 75 83 100 101 77 98
113 126 120 117 114 110 114 115 117 121 123 119 113 109 106 108 115 116 114 111 102 85 73 58 49 36 29 17 12 7 5 23 38 80 59 102 96 75 77 87 97 89 104
133 129 124 119 118 115 115 116 123 125 127 129 121 117 108 109 113 115 111 108 97 91 73 56 41 29 17 7 355 353 2 22 23 8 327 101 67 60 73 95 94 101 105
119 135 128 127 128 125 120 125 131 129 127 134 130 120 116 106 103 103 103 94 81 61 48 27 15 8 357 352 345 344 1 17 14 325 73 134 182 40 77 90 114 106 115
128 127 126 124 123 125 127 131 139 143 132 128 130 121 126 121 102 95 84 73 52 21 355 355 354 344 336 335 331 334 344 356 338 348 190 145 88 30 75 96 116 126 130
122 139 130 130 123 128 138 138 149 151 141 133 125 120 128 127 125 108 68 24 357 349 347 336 323 321 325 330 332 335 339 338 332 348 140 339 86 196 86 107 114 132 143
128 137 130 134 136 132 136 143 150 162 169 161 148 129 125 120 94 37 12 356 343 333 325 319 316 318 325 332 332 335 332 337 324 325 347 132 122 129 112 110 128 136 154
132 130 129 138 141 145 146 146 149 159 172 177 168 144 113 92 93 119 224 288 315 318 320 317 323 325 337 337 343 352 342 343 353 22 287 266 31 36 268 152 148 149 158
138 142 152 142 138 140 142 156 167 175 179 179 171 141 98 34 261 266 350 307 343 325 335 329 349 352 344 332 345 358 4 23 343 308 302 300 312 351 251 220 172 170 163
158 156 155 145 175 159 164 145 172 192 192 206 200 237 122 242 309 328 295 275 327 344 347 326 348 341 341 9 339 337 354 356 322 301 298 280 302 285 259 221 209 195 179
149 164 159 174 143 160 198 130 133 342 256 288 287 254 258 259 228 283 324 329 343 335 349 303 311 328 302 309 316 294 292 295 306 253 304 300 289 271 254 225 217 212 200
165 157 164 163 150 188 172 183 212 211 226 257 252 261 267 283 269 270 255 275 296 288 283 289 292 270 273 296 309 297 281 254 261 284 286 290 288 275 257 234 222 222 218
171 177 170 189 201 194 174 189 222 195 189 263 255 281 251 278 289 285 279 260 252 261 281 302 302 283 280 289 281 271 284 269 245 266 281 273 268 272 268 246 231 225 225
181 184 187 204 223 213 202 200 205 217 223 215 237 248 254 264 276 280 272 278 278 269 276 274 291 306 283 282 271 286 279 269 258 240 250 271 262 266 271 252 237 229 229
188 197 202 198 238 246 223 217 218 208 243 262 247 269 268 268 273 279 283 284 280 278 285 296 310 313 304 295 279 275 271 276 270 253 238 251 267 265 268 261 246 236 232
194 204 213 223 233 241 266 246 239 227 217 240 262 268 289 264 272 278 285 289 287 285 289 289 283 282 290 287 276 268 262 263 272 258 255 245 243 262 268 260 249 249 243
199 194 199 220 224 233 258 260 245 241 253 242 263 260 261 266 271 279 281 287 291 292 296 302 301 296 293 289 278 279 284 276 263 254 263 260 247 238 253 260 256 249 247
176 175 200 208 190 218 237 243 237 238 254 247 251 253 247 259 276 276 283 281 284 290 295 301 296 292 294 298 296 283 263 263 259 254 258 252 254 251 240 249 255 252 245
173 179 189 192 199 216 235 239 248 259 274 292 283 267 274 289 285 293 300 298 302 312 306 306 303 298 291 290 292 288 287 281 264 260 246 249 251 247 249 239 242 252 255
174 177 175 202 216 207 219 253 285 292 295 304 295 286 282 287 301 295 295 287 274 280 281 293 302 297 294 291 287 286 293 295 288 283 262 251 243 244 249 248 239 244 251
177 181 184 189 204 200 219 292 299 341 297 294 294 266 278 266 276 278 280 281 288 290 296 292 289 296 297 295 292 274 282 277 295 295 260 260 257 253 244 245 248 245 240
180 182 191 183 187 207 204 184 256 277 287 272 282 278 274 285 296 306 296 305 291 286 287 289 294 296 297 298 300 290 280 279 283 290 284 276 275 253 247 247 245 252 252
178 179 193 180 182 204 242 210 235 245 232 234 279 274 297 335 324 325 308 279 299 293 286 292 300 304 303 296 297 301 301 294 286 281 282 288 284 273 267 282 255 248 253
180 183 185 195 197 199 230 236 14 328 265 243 245 259 331 281 309 290 274 294 306 311 310 301 305 309 310 307 307 306 306 305 304 300 294 290 288 285 279 275 263 251 255